[[{"header":{"parameterUnit":"m.s-1","parameterCategory":1,"la1":30.2991,"la2":30.254,"lo1":-89.0895,"lo2":-89.0444,"dy":0.0017,"dx":0.0017,"nx":28,"ny":28,"refTime":"2024-09-02T21:00:00:Z","depth":0,"parameterNumber":2,"parameterNumberName":"U-component_of_WINDS"},"data":[0,0,0,0,0,0,0,0,0,0,0,0,0,0,0,0,0,0,0,0,0,0,0,0,0,0,0,0,0,0,0,0,0,0,0,0,0,0,0,0,0,0,0,0,0,0,0,0,0,0,0,0,0,0,0,0,0,0,0.781,0.7812,0,0.7968,0.797,0.7972,0.7999,0.7997,0.7996,0.7995,0.8157,0.8162,0.8168,0,0,0,0,0,0,0,0,0,0,0,0,0,0.7528,0.7533,0.781,0.7812,0.7814,0.7968,0.797,0.7972,0.7999,0.7997,0.7995,0.7994,0.8155,0.8162,0.8168,0,0,0,0,0,0,0,0,0,0,0,0,0,0.7664,0.7534,0.7809,0.7846,0.785,0.7967,0.797,0.7973,0.7999,0.7997,0.7995,0.7993,0.8153,0.8161,0.8169,0.8261,0,0,0.8195,0.8198,0,0,0,0,0,0,0,0,0.7657,0.7675,0.7838,0.7843,0.7849,0.7961,0.793,0.807,0.8,0.7943,0.7995,0.7992,0.8094,0.8107,0.8141,0.8269,0.8276,0.8196,0.8201,0.8204,0.8207,0,0,0,0,0,0,0,0.7647,0.7668,0.7872,0.7841,0.7847,0.7853,0.787,0.7957,0.8028,0.7947,0.795,0.7968,0.8096,0.8133,0.8145,0.8278,0.8195,0.8203,0.8208,0.8211,0.8485,0.8487,0,0,0,0,0,0,0.7631,0.766,0.7867,0.7877,0.7746,0.786,0.7879,0.7927,0.8027,0.804,0.797,0.7969,0.8119,0.8135,0.8151,0.8262,0.8204,0.8212,0.8217,0.8483,0.8485,0.8488,0,0,0,0,0,0,0.7625,0.765,0.7861,0.7769,0.7797,0.7867,0.7921,0.7932,0.7968,0.8043,0.8056,0.7994,0.8118,0.8139,0.8233,0.8268,0.8216,0.8223,0.848,0.8484,0.8487,0.8487,0,0,0,0,0,0,0.7617,0.7647,0.7684,0.777,0.7801,0.7941,0.7923,0.7936,0.7983,0.7983,0.807,0.8082,0.8118,0.822,0.8241,0.8278,0.823,0.8477,0.8482,0.8486,0.8484,0.849,0.8495,0,0,0,0,0,0.7607,0.7679,0.7686,0.7711,0.7849,0.7943,0.7961,0.8001,0.7985,0.8022,0.8069,0.808,0.8261,0.8229,0.8253,0.8294,0.8475,0.848,0.8485,0.8481,0.8488,0.8494,0,0,0,0,0,0,0.7596,0.7691,0.77,0.7802,0.7864,0.7948,0.7995,0.8008,0.8077,0.8074,0.8121,0.814,0.823,0.8272,0.8235,0.8386,0.8367,0.8377,0.8355,0.8363,0.8368,0.8356,0.8237,0,0,0,0,0,0.7606,0.7675,0.7754,0.7836,0.7867,0.7925,0.7968,0.7993,0.806,0.8086,0.8141,0.8205,0.8276,0.8322,0.8392,0.849,0.8507,0.8529,0.8534,0.8539,0.8546,0.8597,0.8607,0.8505,0.8505,0.8504,0,0,0.7626,0.7686,0.7728,0.7835,0.7887,0.7956,0.7948,0.8022,0.8073,0.8098,0.8189,0.8231,0.8305,0.84,0.8445,0.8437,0.8578,0.8545,0.8548,0.8554,0.8603,0.8613,0.8621,0.8508,0.8507,0.8507,0,0,0.7698,0.7752,0.7825,0.7875,0.7952,0.799,0.8007,0.8089,0.8117,0.8209,0.8227,0.8288,0.841,0.8461,0.8503,0.8589,0.86,0.8611,0.8639,0.8688,0.8696,0.8703,0.8731,0.8741,0.8618,0.8618,0.8618,0,0.7714,0.782,0.786,0.7933,0.7978,0.8002,0.8074,0.8122,0.8218,0.8248,0.8238,0.8389,0.8441,0.8546,0.8566,0.8601,0.862,0.8601,0.8691,0.8699,0.8706,0.8733,0.8744,0.8619,0.8619,0.8619,0.8619,0,0.7834,0.7906,0.7955,0.8046,0.8097,0.8169,0.8219,0.8265,0.8285,0.8323,0.8414,0.8476,0.8557,0.8584,0.8605,0.8691,0.8683,0.8682,0.8664,0.8716,0.8742,0.8753,0.862,0.862,0.862,0.8619,0,0,0.7906,0.8014,0.8032,0.8071,0.8156,0.8212,0.8284,0.8362,0.84,0.8464,0.8524,0.8624,0.8622,0.8669,0.8696,0.8739,0.8799,0.8732,0.8734,0.8739,0.8893,0.8893,0.8904,0.8806,0.8808,0.881,0.8886,0,0.7986,0.8115,0.8151,0.826,0.8325,0.8346,0.8408,0.8466,0.8503,0.8563,0.8603,0.8673,0.8666,0.8694,0.8738,0.8782,0.883,0.8777,0.886,0.8863,0.8839,0.8919,0.8919,0.8988,0.8897,0.8899,0.89,0,0.8098,0.8162,0.8276,0.8349,0.8378,0.8433,0.8505,0.8563,0.8627,0.8651,0.8701,0.8722,0.8796,0.8773,0.8873,0.8836,0.8872,0.8898,0.8902,0.891,0.8884,0.8927,0.9012,0.9021,0.8917,0.8916,0.8915,0,0.8135,0.825,0.8333,0.8366,0.8454,0.8491,0.8529,0.8592,0.8635,0.8698,0.8726,0.8797,0.8835,0.8888,0.8927,0.8908,0.9022,0.9004,0.9042,0.9041,0.9065,0.9063,0.9154,0.9091,0.909,0.909,0.909,0,0.822,0.8288,0.835,0.84,0.8476,0.8517,0.859,0.8629,0.8684,0.8741,0.8764,0.8817,0.8866,0.8924,0.8955,0.9031,0.9049,0.9068,0.9075,0.9065,0.9062,0.9088,0.9084,0.9093,0.9092,0.9092,0.9091,0,0.8274,0.8319,0.8409,0.8484,0.8504,0.8556,0.8619,0.8668,0.8704,0.8775,0.8794,0.8851,0.892,0.8964,0.9054,0.9074,0.9156,0.9163,0.9134,0.9137,0.9171,0.9167,0.9282,0.9298,0.9225,0.9226,0.9226,0,0.8325,0.8377,0.8456,0.8496,0.8534,0.8598,0.8641,0.8681,0.8725,0.88,0.8839,0.891,0.8969,0.9078,0.9127,0.9194,0.9201,0.9237,0.9211,0.9198,0.9198,0.9194,0.9198,0.924,0.9241,0.9242,0.9242,0,0.8409,0.8427,0.8489,0.8557,0.8608,0.8664,0.872,0.875,0.88,0.8848,0.8919,0.8964,0.9053,0.9122,0.9193,0.9231,0.9244,0.9249,0.9261,0.9251,0.9231,0.9239,0.9143,0.9247,0.9246,0.9246,0.9246,0.9245,0.8461,0.8507,0.8569,0.8636,0.8682,0.8732,0.878,0.8821,0.8881,0.8957,0.8977,0.905,0.9109,0.9205,0.9244,0.93,0.9295,0.9313,0.9318,0.9321,0.932,0.9223,0.9314,0.9314,0.9313,0.9313,0.9313,0,0.8544,0.8584,0.8645,0.8721,0.8773,0.878,0.8841,0.8883,0.8947,0.9002,0.9058,0.9137,0.9203,0.9255,0.9323,0.9357,0.9365,0.9374,0.9371,0.9378,0.9322,0.9304,0.9366,0.9366,0.9366,0.9366,0.9366,0.9366,0.8593,0.867,0.8695,0.8794,0.8834,0.8905,0.8939,0.8985,0.9028,0.9115,0.9169,0.9203,0.9255,0.9326,0.9385,0.9399,0.9421,0.9428,0.9443,0.9389,0.9383,0.9377,0.936,0.9434,0.9434,0.9494,0.9495,0.9495]},{"header":{"parameterUnit":"m.s-1","parameterCategory":1,"la1":30.2991,"la2":30.254,"lo1":-89.0895,"lo2":-89.0444,"dy":0.0017,"dx":0.0017,"nx":28,"ny":28,"refTime":"2024-09-02T21:00:00:Z","depth":0,"parameterNumber":3,"parameterNumberName":"V-component_of_WINDS"},"data":[0,0,0,0,0,0,0,0,0,0,0,0,0,0,0,0,0,0,0,0,0,0,0,0,0,0,0,0,0,0,0,0,0,0,0,0,0,0,0,0,0,0,0,0,0,0,0,0,0,0,0,0,0,0,0,0,0,0,2.3505,2.3506,0,2.3581,2.3582,2.3583,2.3588,2.3588,2.3587,2.3586,2.3658,2.3661,2.3664,0,0,0,0,0,0,0,0,0,0,0,0,0,2.3358,2.3361,2.3505,2.3506,2.3507,2.3581,2.3582,2.3583,2.3589,2.3588,2.3587,2.3586,2.3657,2.3661,2.3664,0,0,0,0,0,0,0,0,0,0,0,0,0,2.3427,2.3362,2.3505,2.3519,2.3521,2.3581,2.3582,2.3583,2.3589,2.3588,2.3586,2.3585,2.3656,2.366,2.3664,2.3714,0,0,2.3677,2.3678,0,0,0,0,0,0,0,0,2.3423,2.3432,2.3516,2.3518,2.3521,2.3574,2.3557,2.3627,2.3589,2.3563,2.3586,2.3585,2.3631,2.3637,2.3654,2.3717,2.372,2.3677,2.3679,2.3681,2.3682,0,0,0,0,0,0,0,2.3418,2.3429,2.3535,2.3517,2.352,2.3519,2.3527,2.357,2.3603,2.3565,2.3566,2.3575,2.3632,2.365,2.3655,2.3721,2.3677,2.368,2.3683,2.3684,2.3824,2.3825,0,0,0,0,0,0,2.3411,2.3425,2.3533,2.3537,2.3468,2.3523,2.3532,2.3558,2.3602,2.3608,2.3576,2.3575,2.3644,2.3651,2.3658,2.3715,2.3681,2.3685,2.3687,2.3822,2.3824,2.3825,0,0,0,0,0,0,2.3408,2.3421,2.353,2.3481,2.3495,2.3527,2.3556,2.356,2.3578,2.3611,2.3616,2.3589,2.3643,2.3652,2.3699,2.3718,2.3687,2.369,2.3821,2.3823,2.3825,2.3833,0,0,0,0,0,0,2.3404,2.342,2.3441,2.3482,2.3498,2.3572,2.3557,2.3563,2.3586,2.3585,2.3624,2.3629,2.3643,2.3693,2.3703,2.3723,2.3693,2.3819,2.3822,2.3824,2.3831,2.3835,2.3838,0,0,0,0,0,2.3399,2.344,2.3442,2.3455,2.3525,2.3573,2.3582,2.3598,2.3588,2.3607,2.3627,2.3628,2.3715,2.3698,2.3709,2.3731,2.3818,2.3821,2.3824,2.3829,2.3834,2.3838,0,0,0,0,0,0,2.34,2.3446,2.3449,2.3505,2.3535,2.3574,2.36,2.3603,2.3636,2.3634,2.3651,2.366,2.3705,2.3723,2.3703,2.3778,2.3765,2.377,2.3765,2.377,2.3773,2.3767,2.3697,0,0,0,0,0,2.3407,2.3445,2.3482,2.3528,2.3543,2.3569,2.359,2.36,2.3631,2.3644,2.3667,2.3696,2.3729,2.3751,2.3783,2.3834,2.384,2.3854,2.3857,2.386,2.3864,2.3887,2.3893,2.3835,2.3835,2.3835,0,0,2.3422,2.3452,2.3474,2.3529,2.3553,2.3588,2.3579,2.3618,2.3643,2.3649,2.3694,2.3712,2.3745,2.3792,2.3814,2.3808,2.3881,2.3864,2.3866,2.3868,2.3891,2.3896,2.3901,2.3837,2.3836,2.3836,0,0,2.3466,2.3494,2.3533,2.3558,2.3595,2.3611,2.3621,2.3658,2.3671,2.3717,2.372,2.3749,2.3808,2.383,2.3848,2.3897,2.3897,2.3907,2.3925,2.3947,2.3952,2.3956,2.397,2.3975,2.3911,2.3911,2.3911,0,2.3479,2.3534,2.3553,2.359,2.3612,2.362,2.3658,2.368,2.3725,2.3739,2.3732,2.3803,2.3826,2.3876,2.3888,2.3904,2.3912,2.3902,2.395,2.3954,2.3958,2.3972,2.3977,2.3911,2.3911,2.3911,2.3911,0,2.3546,2.3584,2.3611,2.3655,2.368,2.3718,2.3739,2.3762,2.3769,2.3785,2.3829,2.3856,2.3893,2.3906,2.3913,2.3956,2.3951,2.3947,2.3934,2.3964,2.3977,2.3983,2.3913,2.3912,2.3912,2.3912,0,0,2.3594,2.3646,2.3655,2.3673,2.3714,2.3742,2.3778,2.3815,2.3832,2.3863,2.3891,2.3939,2.3934,2.3955,2.3965,2.3985,2.4017,2.3978,2.3979,2.3982,2.4062,2.4063,2.4069,2.4018,2.4019,2.402,2.4058,0,2.364,2.3706,2.3722,2.3778,2.381,2.3816,2.3847,2.3873,2.3889,2.3917,2.3933,2.3965,2.3959,2.3971,2.3992,2.4009,2.4033,2.4006,2.4041,2.4042,2.4031,2.4077,2.4079,2.4114,2.4064,2.4065,2.4065,0,2.3703,2.3734,2.3793,2.3826,2.384,2.3868,2.3901,2.3929,2.3957,2.3966,2.3989,2.3995,2.4029,2.4015,2.406,2.4042,2.4057,2.4067,2.4069,2.4071,2.4054,2.4077,2.4126,2.413,2.4074,2.4073,2.4073,0,2.3727,2.3784,2.3826,2.3842,2.3882,2.3901,2.3918,2.3945,2.3965,2.3993,2.4006,2.4037,2.4054,2.4076,2.409,2.4079,2.4133,2.412,2.4139,2.4138,2.4149,2.4147,2.4198,2.4162,2.4162,2.4162,2.4162,0,2.3775,2.381,2.3837,2.3862,2.39,2.3917,2.3953,2.397,2.3994,2.402,2.4028,2.4052,2.4069,2.4095,2.4106,2.414,2.4148,2.4154,2.4156,2.4152,2.4151,2.4161,2.4158,2.4163,2.4163,2.4163,2.4162,0,2.3808,2.3828,2.3873,2.3907,2.3916,2.3942,2.397,2.3993,2.4008,2.4041,2.405,2.4073,2.4103,2.4119,2.4157,2.4164,2.4201,2.4203,2.4192,2.4192,2.4208,2.4205,2.4265,2.4272,2.4234,2.4234,2.4234,0,2.3836,2.3863,2.3899,2.3918,2.3936,2.3966,2.3986,2.4003,2.4023,2.4056,2.4074,2.4105,2.4131,2.4178,2.4196,2.4224,2.4225,2.4244,2.423,2.4224,2.4222,2.422,2.4221,2.4246,2.4246,2.4247,2.4247,0,2.3882,2.389,2.392,2.3953,2.3976,2.4002,2.4028,2.4042,2.4062,2.4084,2.4116,2.4136,2.4174,2.4203,2.4232,2.4247,2.4249,2.4252,2.4257,2.4252,2.4244,2.4246,2.4196,2.425,2.425,2.4249,2.4249,2.4249,2.3912,2.3935,2.3963,2.3995,2.4016,2.4039,2.4061,2.4079,2.4106,2.4139,2.4147,2.4179,2.4204,2.4243,2.4259,2.4282,2.4278,2.4287,2.4288,2.429,2.4289,2.4241,2.4288,2.4288,2.4288,2.4288,2.4288,0,2.3956,2.3974,2.4004,2.4039,2.4063,2.4065,2.4092,2.4111,2.414,2.4164,2.4189,2.4223,2.4251,2.4271,2.4299,2.4314,2.4315,2.432,2.4318,2.4321,2.4292,2.4284,2.4318,2.4318,2.4318,2.4318,2.4318,2.4318,2.3982,2.4019,2.403,2.4077,2.4095,2.4128,2.4143,2.4163,2.4181,2.422,2.4243,2.4257,2.4278,2.4307,2.4331,2.4336,2.4345,2.435,2.4354,2.4327,2.4323,2.432,2.4312,2.4352,2.4352,2.438,2.4381,2.4381]}]]